Уваровка

Россия / Московская область     55°30′29″N   35°36′21″E
темп.,
°C
ветер,
м/с
пор.,
м/с
влажн.,
%
обл.,
%
осадки,
мм/ч
давл.,
гПа
погр.,
м
22 октября, пт
пт2200:00+10ююз6167490 0.0 993718
03:00+10юз71677100 0.0 992995
06:00+11зюз8157530 0.1 9931251
09:00+9зюз6138150 0.1 9951220
12:00+9юз81872100 0.1 9961765
15:00+9зюз816675 0.4 9981825
18:00+6зюз715707 0.1 10001305
21:00+6зюз714715 0.1 10021160
23 октября, сб
сб2300:00+5юз61374100 0.0 1002980
03:00+5юз61376100 0.0 10021010
06:00+4юз5138123 0.0 1002991
09:00+5юз6137388 0.0 10021100
12:00+6юз6137243 0.0 10031465
15:00+7зюз611697 0.4 10041341
18:00+4зюз512725 0.1 1006903
21:00+4зюз5107699 0.1 10071019
24 октября, вс
вс2400:00+3зюз51286100 0.0 1007811
03:00+2з51194100 0.8 1008710
06:00+2з51296100 1.2 1009743
09:00+2зсз51196100 1.8 1011792
12:00+2зсз51195100 0.6 1013719
15:00+1сз51195100 1.2 1016934
18:00+1ссз61178100 0.3 10191157
21:000ссз5128277 0.3 1021979
25 октября, пн
пн2500:00−1ссз5118845 0.0 1024727
03:00−2ссз498873 0.0 1027690
06:00−3ссз389431 0.0 1029411
09:00−2ссз25865 0.0 1031280
12:00+1сз126376 0.0 1031604
15:00+2з24605 0.0 1031659
18:00−1юз257999 0.0 1031114
21:00−1юз3107641 0.0 1030335
26 октября, вт
вт2600:00−1юз412750 0.0 1030351
03:00−1юз414772 0.0 1029411
06:00−1юз5157662 0.0 1027445
09:000юз51572100 0.0 1026506
12:00+3юз51559100 0.0 1024586
15:00+4юз51460100 0.0 1022717
18:00+2юз51569100 0.0 1021609
21:00+2юз51573100 0.0 1019620